HYLAS 4 (43272 NORAD) Tracking and Keplerian Element Data

This shows tracking and keplerian element data for the satellite.

Feedback or suggestion? Click here.




ElementValue
Catalog43272
NameHYLAS 4
Epoch Orbit106
Epoch Day195.12995851
Epoch Year2018
RAAN137.7022
Inclination0.0055
Eccentricity0.0001641
Argument of Perigee336.2521
Mean Anonmoly246.0506
Mean Motion1.00271508
Decay Rate1.14E-06
L11 43272U 18033B 18195.12995851 .00000114 00000-0 00000+0 0 9992
L22 43272 0.0055 137.7022 0001641 336.2521 246.0506 1.00271508 1060

Live tracking and technical data element details for HYLAS 4 (NORAD 43272). HYLAS 4 can be tracked NOW for your location showing map with azimuth and elevation plus other details from your city location.

Track the satellite on the map from your city or location and see movement details for azimuth, elevation, latitude, longitude, range, height, and movement on the map or in text.







IsCatalogInMostPopularTable: catalog: 43272, numindb: 26
Update: records affected: 1



GetName: 43272 HYLAS 4

Hit Count: updated at: Sun, 15 Jul 2018 22:55:40 GMT